| time (UTC) | temp F | wind direction | speed MPH | gust MPH | rain 1hr in | rain 24hr in | rain mn in | humidity % | barometer mb |
| 20260506212516 | 52 | 0.0 | 1.0 | 0.00 | 0.00 | 0.00 | 76 | 1018.5 | |
| 20260506211516 | 52 | 0.0 | 0.0 | 0.00 | 0.00 | 0.00 | 75 | 1018.4 | |
| 20260506210516 | 52 | 0.0 | 0.0 | 0.00 | 0.00 | 0.00 | 75 | 1018.2 | |
| 20260506205536 | 53 | 0.0 | 0.0 | 0.00 | 0.00 | 0.00 | 74 | 1018.2 | |
| 20260506204516 | 53 | 0.0 | 1.0 | 0.00 | 0.00 | 0.00 | 73 | 1018.2 | |
| 20260506203556 | 53 | 0.0 | 2.0 | 0.00 | 0.00 | 0.00 | 72 | 1018.1 | |
| 20260506202516 | 53 | 0.0 | 1.0 | 0.00 | 0.00 | 0.00 | 72 | 1018.0 | |
| 20260506201516 | 54 | 0.0 | 2.0 | 0.00 | 0.00 | 0.00 | 71 | 1018.0 | |
| 20260506200516 | 54 | 0.0 | 1.0 | 0.00 | 0.00 | 0.00 | 70 | 1017.9 | |
| 20260506195516 | 54 | 0.0 | 0.0 | 0.00 | 0.00 | 0.00 | 70 | 1017.7 | |
| 20260506194536 | 54 | 0.0 | 1.0 | 0.00 | 0.00 | 0.00 | 69 | 1017.6 | |
| 20260506193516 | 55 | 0.0 | 2.0 | 0.00 | 0.00 | 0.00 | 67 | 1017.5 | |
| 20260506192516 | 55 | 0.0 | 1.0 | 0.00 | 0.00 | 0.00 | 66 | 1017.4 | |
| 20260506191516 | 55 | 0.0 | 2.0 | 0.00 | 0.00 | 0.00 | 65 | 1017.3 | |
| 20260506190536 | 55 | 0.0 | 1.0 | 0.00 | 0.00 | 0.00 | 64 | 1017.2 | |
| 20260506185516 | 56 | 0.0 | 1.0 | 0.00 | 0.00 | 0.00 | 63 | 1017.2 | |
| 20260506184516 | 56 | 0.0 | 2.0 | 0.00 | 0.00 | 0.00 | 63 | 1017.1 | |
| 20260506183516 | 56 | 0.0 | 2.0 | 0.00 | 0.00 | 0.00 | 64 | 1017.1 | |
| 20260506182516 | 57 | 0.0 | 2.0 | 0.00 | 0.00 | 0.00 | 63 | 1016.9 | |
| 20260506181516 | 57 | 0.0 | 1.0 | 0.00 | 0.00 | 0.00 | 63 | 1016.8 | |
| 20260506180516 | 57 | 0.0 | 2.0 | 0.00 | 0.00 | 0.00 | 63 | 1016.8 | |
| 20260506175516 | 57 | 0.0 | 1.0 | 0.00 | 0.00 | 0.00 | 64 | 1016.7 | |
| 20260506174516 | 57 | 0.0 | 2.0 | 0.00 | 0.00 | 0.00 | 64 | 1016.6 | |
| 20260506173516 | 57 | 0.0 | 2.0 | 0.00 | 0.00 | 0.00 | 63 | 1016.6 | |
| 20260506172516 | 57 | 0.0 | 2.0 | 0.00 | 0.00 | 0.00 | 62 | 1016.6 | |
| 20260506171516 | 58 | 0 | 1.0 | 5.0 | 0.00 | 0.00 | 0.00 | 62 | 1016.6 |
| 20260506170516 | 58 | 0.0 | 2.0 | 0.00 | 0.00 | 0.00 | 62 | 1016.6 | |
| 20260506165516 | 58 | 0.0 | 1.0 | 0.00 | 0.00 | 0.00 | 61 | 1016.6 | |
| 20260506164516 | 59 | 0 | 1.0 | 5.0 | 0.00 | 0.00 | 0.00 | 60 | 1016.5 |
| 20260506163516 | 59 | 45 | 1.0 | 3.0 | 0.00 | 0.00 | 0.00 | 61 | 1016.4 |
| 20260506162516 | 59 | 0.0 | 2.0 | 0.00 | 0.00 | 0.00 | 61 | 1016.4 | |
| 20260506161516 | 59 | 0.0 | 2.0 | 0.00 | 0.00 | 0.00 | 60 | 1016.5 | |
| 20260506160516 | 60 | 338 | 1.0 | 4.0 | 0.00 | 0.00 | 0.00 | 59 | 1016.5 |
| 20260506155516 | 60 | 293 | 1.0 | 5.0 | 0.00 | 0.00 | 0.00 | 59 | 1016.5 |
| 20260506154516 | 59 | 23 | 1.0 | 3.0 | 0.00 | 0.00 | 0.00 | 61 | 1016.6 |
| 20260506153536 | 59 | 0.0 | 2.0 | 0.00 | 0.00 | 0.00 | 60 | 1016.5 | |
| 20260506152516 | 59 | 338 | 1.0 | 4.0 | 0.00 | 0.00 | 0.00 | 59 | 1016.6 |
| 20260506151516 | 59 | 23 | 1.0 | 3.0 | 0.00 | 0.00 | 0.00 | 60 | 1016.5 |
| 20260506150516 | 59 | 23 | 1.0 | 5.0 | 0.00 | 0.00 | 0.00 | 60 | 1016.5 |
| 20260506145536 | 59 | 293 | 1.0 | 4.0 | 0.00 | 0.00 | 0.00 | 60 | 1016.5 |
| 20260506144516 | 59 | 45 | 1.0 | 4.0 | 0.00 | 0.00 | 0.00 | 57 | 1016.5 |
| 20260506143516 | 60 | 0 | 1.0 | 7.0 | 0.00 | 0.00 | 0.00 | 54 | 1016.5 |
| 20260506142516 | 61 | 0.0 | 3.0 | 0.00 | 0.00 | 0.00 | 55 | 1016.4 | |
| 20260506141516 | 61 | 0.0 | 1.0 | 0.00 | 0.00 | 0.00 | 54 | 1016.3 | |
| 20260506140516 | 62 | 0.0 | 4.0 | 0.00 | 0.00 | 0.00 | 51 | 1016.3 | |
| 20260506135516 | 63 | 338 | 1.0 | 4.0 | 0.00 | 0.00 | 0.00 | 51 | 1016.3 |
| 20260506134536 | 63 | 0.0 | 1.0 | 0.00 | 0.00 | 0.00 | 50 | 1016.4 | |
| 20260506133516 | 64 | 0 | 1.0 | 3.0 | 0.00 | 0.00 | 0.00 | 48 | 1016.4 |
| 20260506132516 | 63 | 0.0 | 2.0 | 0.00 | 0.00 | 0.00 | 50 | 1016.4 | |
| 20260506131556 | 65 | 0 | 1.0 | 5.0 | 0.00 | 0.00 | 0.00 | 46 | 1016.4 |
| 20260506130516 | 66 | 0 | 2.0 | 5.0 | 0.00 | 0.00 | 0.00 | 45 | 1016.5 |
| 20260506125516 | 67 | 23 | 1.0 | 3.0 | 0.00 | 0.00 | 0.00 | 47 | 1016.3 |
| 20260506124516 | 66 | 338 | 1.0 | 4.0 | 0.00 | 0.00 | 0.00 | 47 | 1016.4 |
| 20260506123516 | 66 | 45 | 1.0 | 5.0 | 0.00 | 0.00 | 0.00 | 50 | 1016.4 |
| 20260506122517 | 65 | 23 | 1.0 | 5.0 | 0.00 | 0.00 | 0.00 | 51 | 1016.3 |
| 20260506121516 | 65 | 338 | 1.0 | 4.0 | 0.00 | 0.00 | 0.00 | 49 | 1016.5 |
| 20260506120516 | 65 | 338 | 1.0 | 4.0 | 0.00 | 0.00 | 0.00 | 50 | 1016.5 |
| 20260506115516 | 65 | 0 | 1.0 | 4.0 | 0.00 | 0.00 | 0.00 | 52 | 1016.5 |
| 20260506114516 | 64 | 315 | 1.0 | 4.0 | 0.00 | 0.00 | 0.00 | 49 | 1016.6 |
| 20260506113516 | 64 | 23 | 2.0 | 7.0 | 0.00 | 0.00 | 0.00 | 50 | 1016.7 |
| 20260506112516 | 64 | 0 | 1.0 | 7.0 | 0.00 | 0.00 | 0.00 | 50 | 1016.6 |
| 20260506111516 | 63 | 0 | 1.0 | 5.0 | 0.00 | 0.00 | 0.00 | 51 | 1016.5 |
| 20260506110516 | 63 | 338 | 2.0 | 7.0 | 0.00 | 0.00 | 0.00 | 51 | 1016.6 |
| 20260506105516 | 62 | 338 | 1.0 | 6.0 | 0.00 | 0.00 | 0.00 | 51 | 1016.6 |
| 20260506104516 | 62 | 0 | 2.0 | 5.0 | 0.00 | 0.00 | 0.00 | 52 | 1016.6 |
| 20260506103516 | 61 | 0 | 1.0 | 7.0 | 0.00 | 0.00 | 0.00 | 54 | 1016.6 |
| 20260506102536 | 60 | 248 | 1.0 | 5.0 | 0.00 | 0.00 | 0.00 | 58 | 1016.6 |
| 20260506101536 | 60 | 0 | 1.0 | 5.0 | 0.00 | 0.00 | 0.00 | 58 | 1016.7 |
| 20260506100516 | 60 | 338 | 1.0 | 6.0 | 0.00 | 0.00 | 0.00 | 60 | 1016.7 |
| 20260506095516 | 59 | 338 | 1.0 | 4.0 | 0.00 | 0.00 | 0.00 | 62 | 1016.7 |
| 20260506094517 | 59 | 0 | 1.0 | 5.0 | 0.00 | 0.00 | 0.00 | 60 | 1016.7 |
| 20260506093516 | 59 | 0 | 1.0 | 4.0 | 0.00 | 0.00 | 0.00 | 62 | 1016.7 |
| 20260506092516 | 59 | 0 | 1.0 | 2.0 | 0.00 | 0.00 | 0.00 | 61 | 1016.8 |
| 20260506091536 | 58 | 0 | 1.0 | 3.0 | 0.00 | 0.00 | 0.00 | 62 | 1016.7 |
| 20260506090516 | 57 | 0 | 1.0 | 4.0 | 0.00 | 0.00 | 0.00 | 64 | 1016.7 |
| 20260506085536 | 56 | 23 | 1.0 | 6.0 | 0.00 | 0.00 | 0.00 | 67 | 1016.8 |
| 20260506084636 | 55 | 293 | 1.0 | 3.0 | 0.00 | 0.00 | 0.00 | 69 | 1016.7 |
| 20260506083516 | 54 | 338 | 1.0 | 4.0 | 0.00 | 0.00 | 0.00 | 69 | 1016.7 |
| 20260506082516 | 53 | 23 | 1.0 | 5.0 | 0.00 | 0.00 | 0.00 | 71 | 1016.7 |
| 20260506081536 | 52 | 315 | 1.0 | 2.0 | 0.00 | 0.00 | 0.00 | 74 | 1016.7 |
| 20260506080516 | 51 | 338 | 1.0 | 4.0 | 0.00 | 0.00 | 0.00 | 74 | 1016.7 |
| 20260506073516 | 51 | 338 | 1.0 | 4.0 | 0.00 | 0.00 | 0.00 | 77 | 1016.7 |
| 20260506072516 | 50 | 0 | 1.0 | 2.0 | 0.00 | 0.00 | 0.00 | 80 | 1016.6 |
| 20260506071516 | 49 | 23 | 1.0 | 3.0 | 0.00 | 0.00 | 0.00 | 81 | 1016.6 |
| 20260506070516 | 49 | 0 | 1.0 | 2.0 | 0.00 | 0.00 | 0.00 | 82 | 1016.6 |
| 20260506062517 | 48 | 0 | 1.0 | 2.0 | 0.00 | 0.00 | 0.00 | 85 | 1016.3 |
| 20260506061517 | 47 | 23 | 1.0 | 4.0 | 0.00 | 0.00 | 0.00 | 86 | 1016.4 |
| 20260506060517 | 47 | 0.0 | 1.0 | 0.00 | 0.00 | 0.00 | 86 | 1016.4 | |
| 20260506050536 | 48 | 0.0 | 2.0 | 0.00 | 0.00 | 0.00 | 84 | 1016.2 | |
| 20260506044536 | 48 | 0.0 | 2.0 | 0.00 | 0.00 | 0.00 | 84 | 1016.1 | |
| 20260506043517 | 49 | 23 | 1.0 | 2.0 | 0.00 | 0.00 | 0.00 | 84 | 1016.0 |
| 20260506042537 | 49 | 0.0 | 2.0 | 0.00 | 0.00 | 0.00 | 84 | 1016.0 | |
| 20260506041517 | 49 | 0.0 | 3.0 | 0.00 | 0.00 | 0.00 | 83 | 1016.0 | |
| 20260506040517 | 49 | 0.0 | 2.0 | 0.00 | 0.00 | 0.00 | 83 | 1015.9 | |
| 20260506035517 | 49 | 0.0 | 3.0 | 0.00 | 0.00 | 0.00 | 82 | 1015.9 | |
| 20260506034516 | 50 | 0.0 | 1.0 | 0.00 | 0.00 | 0.00 | 82 | 1015.8 | |
| 20260506033517 | 50 | 0.0 | 2.0 | 0.00 | 0.00 | 0.00 | 82 | 1015.8 | |
| 20260506032517 | 50 | 0.0 | 3.0 | 0.00 | 0.00 | 0.00 | 82 | 1015.9 | |
| 20260506031516 | 50 | 0.0 | 2.0 | 0.00 | 0.00 | 0.00 | 82 | 1016.0 | |
| 20260506030516 | 50 | 0.0 | 2.0 | 0.00 | 0.00 | 0.00 | 81 | 1015.9 | |
| 20260506025516 | 50 | 0.0 | 1.0 | 0.00 | 0.00 | 0.00 | 81 | 1016.0 | |
| 20260506024517 | 50 | 0.0 | 3.0 | 0.00 | 0.00 | 0.00 | 81 | 1015.9 | |
| 20260506023516 | 50 | 0 | 1.0 | 4.0 | 0.00 | 0.00 | 0.00 | 81 | 1015.9 |
| 20260506022516 | 50 | 0.0 | 3.0 | 0.00 | 0.00 | 0.00 | 81 | 1016.0 | |
| 20260506021517 | 50 | 0 | 1.0 | 2.0 | 0.00 | 0.00 | 0.00 | 81 | 1016.0 |
| 20260506020516 | 51 | 0 | 1.0 | 2.0 | 0.00 | 0.00 | 0.00 | 81 | 1016.1 |
| 20260506015517 | 51 | 0.0 | 2.0 | 0.00 | 0.00 | 0.00 | 81 | 1016.1 | |
| 20260506014516 | 51 | 23 | 1.0 | 4.0 | 0.00 | 0.00 | 0.00 | 80 | 1016.1 |
| 20260506013516 | 51 | 0 | 1.0 | 5.0 | 0.00 | 0.00 | 0.00 | 80 | 1016.2 |
| 20260506012557 | 51 | 0.0 | 3.0 | 0.00 | 0.00 | 0.00 | 81 | 1016.2 | |
| 20260506011517 | 52 | 0.0 | 2.0 | 0.00 | 0.00 | 0.00 | 81 | 1016.2 | |
| 20260506010517 | 52 | 0.0 | 3.0 | 0.00 | 0.00 | 0.00 | 81 | 1016.2 | |
| 20260506005516 | 52 | 0.0 | 2.0 | 0.00 | 0.00 | 0.00 | 81 | 1016.3 | |
| 20260506004516 | 52 | 0.0 | 2.0 | 0.00 | 0.00 | 0.00 | 82 | 1016.2 | |
| 20260506003516 | 53 | 23 | 1.0 | 2.0 | 0.00 | 0.00 | 0.00 | 81 | 1016.3 |
| 20260506002516 | 53 | 338 | 1.0 | 2.0 | 0.00 | 0.00 | 0.00 | 80 | 1016.3 |
| 20260506001557 | 53 | 315 | 1.0 | 2.0 | 0.00 | 0.00 | 0.00 | 79 | 1016.4 |
| 20260506000517 | 53 | 338 | 1.0 | 4.0 | 0.00 | 0.00 | 0.00 | 78 | 1016.4 |
| 20260505235516 | 53 | 0.0 | 1.0 | 0.00 | 0.00 | 0.00 | 77 | 1016.3 | |
| 20260505234517 | 53 | 0.0 | 1.0 | 0.00 | 0.00 | 0.00 | 77 | 1016.3 | |
| 20260505233517 | 53 | 0.0 | 2.0 | 0.00 | 0.00 | 0.00 | 76 | 1016.2 | |
| 20260505232516 | 53 | 0.0 | 1.0 | 0.00 | 0.00 | 0.00 | 76 | 1016.3 | |
| 20260505231537 | 53 | 0.0 | 2.0 | 0.00 | 0.00 | 0.00 | 75 | 1016.3 | |
| 20260505230537 | 53 | 0.0 | 2.0 | 0.00 | 0.00 | 0.00 | 75 | 1016.3 | |
| 20260505225517 | 53 | 0.0 | 1.0 | 0.00 | 0.00 | 0.00 | 74 | 1016.3 | |
| 20260505224516 | 53 | 0.0 | 2.0 | 0.00 | 0.00 | 0.00 | 73 | 1016.3 | |
| 20260505223517 | 54 | 315 | 1.0 | 4.0 | 0.00 | 0.00 | 0.00 | 73 | 1016.3 |
| 20260505222516 | 54 | 0.0 | 1.0 | 0.00 | 0.00 | 0.00 | 72 | 1016.3 | |
| 20260505221517 | 54 | 0.0 | 1.0 | 0.00 | 0.00 | 0.00 | 70 | 1016.2 | |
| 20260505220516 | 54 | 0.0 | 2.0 | 0.00 | 0.00 | 0.00 | 68 | 1016.3 | |
| 20260505215517 | 55 | 315 | 1.0 | 4.0 | 0.00 | 0.00 | 0.00 | 67 | 1016.3 |
| 20260505214517 | 55 | 315 | 1.0 | 3.0 | 0.00 | 0.00 | 0.00 | 66 | 1016.2 |
| 20260505213516 | 55 | 0 | 1.0 | 4.0 | 0.00 | 0.00 | 0.00 | 66 | 1016.1 |